Time,TemperatureF,DewpointF,PressureIn,WindDirection,WindDirectionDegrees,WindSpeedMPH,WindSpeedGustMPH,Humidity,HourlyPrecipIn,Conditions,Clouds,dailyrainin,SoftwareType,DateUTC
2013-06-02 00:40:00,56.8,44.3,30.13,ENE,68,0.0,0.0,63,0.00,,---,0.00,VWS V13.01,2013-06-02 06:40:00,
2013-06-02 00:41:00,56.8,44.3,30.13,ENE,68,0.0,0.0,63,0.00,,---,0.00,VWS V13.01,2013-06-02 06:41:00,
2013-06-02 00:43:00,56.8,44.3,30.13,ENE,68,0.0,0.0,63,0.00,,---,0.00,VWS V13.01,2013-06-02 06:43:00,
2013-06-02 00:44:00,56.8,44.3,30.13,ENE,68,0.0,0.0,63,0.00,,---,0.00,VWS V13.01,2013-06-02 06:44:00,
2013-06-02 00:49:00,56.4,44.4,30.13,ENE,68,0.0,0.0,64,0.00,,---,0.00,VWS V13.01,2013-06-02 06:49:00,
2013-06-02 00:54:00,56.4,44.4,30.13,ENE,68,0.0,0.0,64,0.00,,---,0.00,VWS V13.01,2013-06-02 06:54:00,
2013-06-02 00:59:00,56.4,44.4,30.12,ENE,68,0.0,0.0,64,0.00,,---,0.00,VWS V13.01,2013-06-02 06:59:00,
2013-06-02 01:05:00,56.4,44.4,30.12,ENE,68,0.0,0.0,64,0.00,,---,0.00,VWS V13.01,2013-06-02 07:05:00,
2013-06-02 01:10:00,56.3,44.3,30.12,ENE,68,0.0,0.0,64,0.00,,---,0.00,VWS V13.01,2013-06-02 07:10:00,
2013-06-02 01:16:00,56.3,44.3,30.12,NE,45,0.0,0.0,64,0.00,,---,0.00,VWS V13.01,2013-06-02 07:16:00,
2013-06-02 01:21:00,56.3,44.3,30.12,NNW,338,0.0,0.0,64,0.00,,---,0.00,VWS V13.01,2013-06-02 07:21:00,
2013-06-02 01:26:00,56.4,44.4,30.11,NW,315,0.0,0.0,64,0.00,,---,0.00,VWS V13.01,2013-06-02 07:26:00,
2013-06-02 01:32:00,56.4,44.4,30.11,NE,45,0.0,0.0,64,0.00,,---,0.00,VWS V13.01,2013-06-02 07:32:00,
2013-06-02 01:38:00,56.4,44.4,30.11,NNE,22,0.0,0.0,64,0.00,,---,0.00,VWS V13.01,2013-06-02 07:38:00,
2013-06-02 01:44:00,56.3,44.3,30.10,NE,45,0.0,0.0,64,0.00,,---,0.00,VWS V13.01,2013-06-02 07:44:00,
2013-06-02 01:50:00,56.3,43.9,30.10,ENE,68,0.0,0.0,63,0.00,,---,0.00,VWS V13.01,2013-06-02 07:50:00,
2013-06-02 01:55:00,56.3,43.9,30.11,ENE,68,0.0,0.0,63,0.00,,---,0.00,VWS V13.01,2013-06-02 07:55:00,
2013-06-02 02:00:00,56.3,44.3,30.10,ENE,68,0.0,0.0,64,0.00,,---,0.00,VWS V13.01,2013-06-02 08:00:00,
2013-06-02 02:05:00,56.1,44.1,30.10,ENE,68,0.0,0.0,64,0.00,,---,0.00,VWS V13.01,2013-06-02 08:05:00,
2013-06-02 02:10:00,56.1,44.1,30.10,WNW,292,0.0,0.0,64,0.00,,---,0.00,VWS V13.01,2013-06-02 08:10:00,
2013-06-02 02:15:00,55.9,43.9,30.10,NE,45,0.0,0.0,64,0.00,,---,0.00,VWS V13.01,2013-06-02 08:15:00,
2013-06-02 02:20:00,55.9,43.9,30.10,NE,45,0.0,0.0,64,0.00,,---,0.00,VWS V13.01,2013-06-02 08:20:00,
2013-06-02 02:25:00,55.9,43.9,30.10,NE,45,0.0,0.0,64,0.00,,---,0.00,VWS V13.01,2013-06-02 08:25:00,
2013-06-02 02:31:00,55.9,43.9,30.09,NE,45,0.0,0.0,64,0.00,,---,0.00,VWS V13.01,2013-06-02 08:31:00,
2013-06-02 02:36:00,55.9,44.3,30.09,NE,45,0.0,0.0,65,0.00,,---,0.00,VWS V13.01,2013-06-02 08:36:00,
2013-06-02 02:41:00,55.9,44.3,30.09,ENE,68,0.0,0.0,65,0.00,,---,0.00,VWS V13.01,2013-06-02 08:41:00,
2013-06-02 02:46:00,55.9,44.3,30.09,ENE,68,0.0,0.0,65,0.00,,---,0.00,VWS V13.01,2013-06-02 08:46:00,
2013-06-02 02:51:00,55.7,44.1,30.09,ESE,112,0.0,0.0,65,0.00,,---,0.00,VWS V13.01,2013-06-02 08:51:00,
2013-06-02 02:56:00,55.7,44.1,30.09,ENE,68,0.0,0.0,65,0.00,,---,0.00,VWS V13.01,2013-06-02 08:56:00,
2013-06-02 03:01:00,55.7,44.1,30.09,ENE,68,0.0,0.0,65,0.00,,---,0.00,VWS V13.01,2013-06-02 09:01:00,
2013-06-02 03:06:00,55.5,43.9,30.08,ENE,68,0.0,0.0,65,0.00,,---,0.00,VWS V13.01,2013-06-02 09:06:00,
2013-06-02 03:11:00,55.5,43.9,30.09,SSE,158,0.0,0.0,65,0.00,,---,0.00,VWS V13.01,2013-06-02 09:11:00,
2013-06-02 03:16:00,55.4,43.8,30.08,SSE,158,0.0,0.0,65,0.00,,---,0.00,VWS V13.01,2013-06-02 09:16:00,
2013-06-02 03:21:00,55.4,43.8,30.08,East,90,0.0,0.0,65,0.00,,---,0.00,VWS V13.01,2013-06-02 09:21:00,
2013-06-02 03:27:00,55.4,43.8,30.08,East,90,0.0,0.0,65,0.00,,---,0.00,VWS V13.01,2013-06-02 09:27:00,
2013-06-02 03:32:00,55.2,43.7,30.08,SSW,202,0.0,0.0,65,0.00,,---,0.00,VWS V13.01,2013-06-02 09:32:00,
2013-06-02 03:37:00,55.2,44.0,30.08,SW,225,0.0,0.0,66,0.00,,---,0.00,VWS V13.01,2013-06-02 09:37:00,
2013-06-02 03:42:00,55.2,44.0,30.08,WNW,292,0.0,0.0,66,0.00,,---,0.00,VWS V13.01,2013-06-02 09:42:00,
2013-06-02 03:47:00,55.0,43.9,30.08,WNW,292,0.0,0.0,66,0.00,,---,0.00,VWS V13.01,2013-06-02 09:47:00,
2013-06-02 03:52:00,55.0,43.9,30.08,WNW,292,0.0,0.0,66,0.00,,---,0.00,VWS V13.01,2013-06-02 09:52:00,
2013-06-02 03:57:00,54.8,43.7,30.08,WNW,292,0.0,0.0,66,0.00,,---,0.00,VWS V13.01,2013-06-02 09:57:00,
2013-06-02 04:02:00,54.6,43.5,30.08,WNW,292,0.0,0.0,66,0.00,,---,0.00,VWS V13.01,2013-06-02 10:02:00,
2013-06-02 04:07:00,54.5,43.4,30.08,NW,315,0.0,0.0,66,0.00,,---,0.00,VWS V13.01,2013-06-02 10:07:00,
2013-06-02 04:12:00,54.5,43.4,30.08,NW,315,0.0,0.0,66,0.00,,---,0.00,VWS V13.01,2013-06-02 10:12:00,
2013-06-02 04:17:00,54.3,43.2,30.07,West,270,0.0,0.0,66,0.00,,---,0.00,VWS V13.01,2013-06-02 10:17:00,
2013-06-02 04:22:00,54.3,43.6,30.07,West,270,0.0,0.0,67,0.00,,---,0.00,VWS V13.01,2013-06-02 10:22:00,
2013-06-02 04:27:00,54.1,43.4,30.07,West,270,0.0,0.0,67,0.00,,---,0.00,VWS V13.01,2013-06-02 10:27:00,
2013-06-02 04:32:00,53.9,43.2,30.07,West,270,0.0,0.0,67,0.00,,---,0.00,VWS V13.01,2013-06-02 10:32:00,
2013-06-02 04:37:00,53.7,43.0,30.08,West,270,0.0,0.0,67,0.00,,---,0.00,VWS V13.01,2013-06-02 10:37:00,
2013-06-02 04:42:00,53.7,43.0,30.07,West,270,0.0,0.0,67,0.00,,---,0.00,VWS V13.01,2013-06-02 10:42:00,
2013-06-02 04:47:00,53.4,43.1,30.07,WSW,248,0.0,0.0,68,0.00,,---,0.00,VWS V13.01,2013-06-02 10:47:00,
2013-06-02 04:52:00,53.4,43.1,30.07,WSW,248,0.0,0.0,68,0.00,,---,0.00,VWS V13.01,2013-06-02 10:52:00,
2013-06-02 04:57:00,53.4,43.1,30.07,WSW,248,0.0,0.0,68,0.00,,---,0.00,VWS V13.01,2013-06-02 10:57:00,
2013-06-02 05:02:00,53.2,42.9,30.07,WSW,248,0.0,0.0,68,0.00,,---,0.00,VWS V13.01,2013-06-02 11:02:00,
2013-06-02 05:08:00,53.0,43.1,30.07,WSW,248,0.0,0.0,69,0.00,,---,0.00,VWS V13.01,2013-06-02 11:08:00,
2013-06-02 05:13:00,52.8,42.9,30.07,WSW,248,0.0,0.0,69,0.00,,---,0.00,VWS V13.01,2013-06-02 11:13:00,
2013-06-02 05:18:00,52.8,42.9,30.07,WSW,248,0.0,0.0,69,0.00,,---,0.00,VWS V13.01,2013-06-02 11:18:00,
2013-06-02 05:23:00,52.7,42.8,30.07,WSW,248,0.0,0.0,69,0.00,,---,0.00,VWS V13.01,2013-06-02 11:23:00,
2013-06-02 05:28:00,52.7,43.2,30.07,WSW,248,0.0,0.0,70,0.00,,---,0.00,VWS V13.01,2013-06-02 11:28:00,
2013-06-02 05:33:00,52.5,43.0,30.07,WSW,248,0.0,0.0,70,0.00,,---,0.00,VWS V13.01,2013-06-02 11:33:00,
2013-06-02 05:38:00,52.5,43.0,30.07,WSW,248,0.0,0.0,70,0.00,,---,0.00,VWS V13.01,2013-06-02 11:38:00,
2013-06-02 05:44:00,52.3,42.8,30.06,WSW,248,0.0,0.0,70,0.00,,---,0.00,VWS V13.01,2013-06-02 11:44:00,
2013-06-02 05:49:00,52.3,42.8,30.06,WSW,248,0.0,0.0,70,0.00,,---,0.00,VWS V13.01,2013-06-02 11:49:00,
2013-06-02 05:54:00,52.1,42.6,30.07,WSW,248,0.0,0.0,70,0.00,,---,0.00,VWS V13.01,2013-06-02 11:54:00,
2013-06-02 05:59:00,52.1,43.0,30.06,West,270,0.0,0.0,71,0.00,,---,0.00,VWS V13.01,2013-06-02 11:59:00,
2013-06-02 06:04:00,51.9,42.8,30.06,West,270,0.0,0.0,71,0.00,,---,0.00,VWS V13.01,2013-06-02 12:04:00,
2013-06-02 06:09:00,51.9,42.8,30.06,West,270,0.0,0.0,71,0.00,,---,0.00,VWS V13.01,2013-06-02 12:09:00,
2013-06-02 06:14:00,51.8,43.1,30.06,WSW,248,0.0,0.0,72,0.00,,---,0.00,VWS V13.01,2013-06-02 12:14:00,
2013-06-02 06:20:00,51.6,42.9,30.06,WSW,248,0.0,0.0,72,0.00,,---,0.00,VWS V13.01,2013-06-02 12:20:00,
2013-06-02 06:25:00,51.6,43.2,30.06,WSW,248,0.0,0.0,73,0.00,,---,0.00,VWS V13.01,2013-06-02 12:25:00,
2013-06-02 06:30:00,51.6,43.2,30.06,WSW,248,0.0,0.0,73,0.00,,---,0.00,VWS V13.01,2013-06-02 12:30:00,
2013-06-02 06:35:00,51.6,43.2,30.06,WSW,248,0.0,0.0,73,0.00,,---,0.00,VWS V13.01,2013-06-02 12:35:00,
2013-06-02 06:40:00,51.6,43.2,30.07,WSW,248,0.0,0.0,73,0.00,,---,0.00,VWS V13.01,2013-06-02 12:40:00,
2013-06-02 06:45:00,51.6,43.2,30.06,WSW,248,0.0,0.0,73,0.00,,---,0.00,VWS V13.01,2013-06-02 12:45:00,
2013-06-02 06:50:00,51.6,43.6,30.06,WSW,248,0.0,0.0,74,0.00,,---,0.00,VWS V13.01,2013-06-02 12:50:00,
2013-06-02 06:55:00,51.9,44.2,30.06,WSW,248,0.0,0.0,75,0.00,,---,0.00,VWS V13.01,2013-06-02 12:55:00,
2013-06-02 07:00:00,52.3,44.6,30.06,WSW,248,0.0,0.0,75,0.00,,---,0.00,VWS V13.01,2013-06-02 13:00:00,
2013-06-02 07:05:00,53.2,45.5,30.07,WSW,248,0.0,0.0,75,0.00,,---,0.00,VWS V13.01,2013-06-02 13:05:00,
2013-06-02 07:10:00,53.7,46.0,30.07,WSW,248,0.0,0.0,75,0.00,,---,0.00,VWS V13.01,2013-06-02 13:10:00,
2013-06-02 07:15:00,54.3,46.2,30.07,WSW,248,0.0,0.0,74,0.00,,---,0.00,VWS V13.01,2013-06-02 13:15:00,
2013-06-02 07:20:00,54.5,46.4,30.07,WSW,248,0.0,0.0,74,0.00,,---,0.00,VWS V13.01,2013-06-02 13:20:00,
2013-06-02 07:25:00,55.0,46.9,30.06,WSW,248,0.0,0.0,74,0.00,,---,0.00,VWS V13.01,2013-06-02 13:25:00,
2013-06-02 07:30:00,55.2,46.7,30.06,WSW,248,0.0,0.0,73,0.00,,---,0.00,VWS V13.01,2013-06-02 13:30:00,
2013-06-02 07:35:00,55.2,46.7,30.06,WSW,248,0.0,0.0,73,0.00,,---,0.00,VWS V13.01,2013-06-02 13:35:00,
2013-06-02 07:40:00,55.5,47.0,30.06,WSW,248,0.0,0.0,73,0.00,,---,0.00,VWS V13.01,2013-06-02 13:40:00,
2013-06-02 07:45:00,55.7,47.2,30.06,WSW,248,0.0,0.0,73,0.00,,---,0.00,VWS V13.01,2013-06-02 13:45:00,
2013-06-02 07:50:00,55.7,47.2,30.06,WSW,248,0.0,0.0,73,0.00,,---,0.00,VWS V13.01,2013-06-02 13:50:00,
2013-06-02 07:55:00,55.9,47.4,30.05,WSW,248,0.0,0.0,73,0.00,,---,0.00,VWS V13.01,2013-06-02 13:55:00,
2013-06-02 08:00:00,56.3,47.8,30.05,WSW,248,0.0,0.0,73,0.00,,---,0.00,VWS V13.01,2013-06-02 14:00:00,
2013-06-02 08:05:00,56.4,47.9,30.05,West,270,0.0,0.0,73,0.00,,---,0.00,VWS V13.01,2013-06-02 14:05:00,
2013-06-02 08:10:00,57.3,47.6,30.05,ENE,68,0.0,0.0,70,0.00,,---,0.00,VWS V13.01,2013-06-02 14:10:00,
2013-06-02 08:15:00,57.7,47.6,30.05,ENE,68,0.0,0.0,69,0.00,,---,0.00,VWS V13.01,2013-06-02 14:15:00,
2013-06-02 08:20:00,58.2,47.7,30.05,ENE,68,0.0,0.0,68,0.00,,---,0.00,VWS V13.01,2013-06-02 14:20:00,
2013-06-02 08:25:00,58.8,47.9,30.05,ENE,68,0.0,0.0,67,0.00,,---,0.00,VWS V13.01,2013-06-02 14:25:00,
2013-06-02 08:30:00,59.7,48.3,30.05,ENE,68,0.0,0.0,66,0.00,,---,0.00,VWS V13.01,2013-06-02 14:30:00,
2013-06-02 08:35:00,60.0,48.6,30.05,ENE,68,0.0,0.0,66,0.00,,---,0.00,VWS V13.01,2013-06-02 14:35:00,
2013-06-02 08:40:00,61.1,49.7,30.05,ENE,68,0.0,0.0,66,0.00,,---,0.00,VWS V13.01,2013-06-02 14:40:00,
2013-06-02 08:45:00,61.5,49.6,30.05,ENE,68,0.0,0.0,65,0.00,,---,0.00,VWS V13.01,2013-06-02 14:45:00,
2013-06-02 08:50:00,62.0,49.7,30.04,ENE,68,0.0,0.0,64,0.00,,---,0.00,VWS V13.01,2013-06-02 14:50:00,
2013-06-02 08:55:00,62.7,49.5,30.05,ENE,68,0.0,0.0,62,0.00,,---,0.00,VWS V13.01,2013-06-02 14:55:00,
2013-06-02 09:00:00,63.1,49.9,30.05,ENE,68,0.0,0.0,62,0.00,,---,0.00,VWS V13.01,2013-06-02 15:00:00,
2013-06-02 09:05:00,63.3,50.1,30.04,ENE,68,0.0,0.0,62,0.00,,---,0.00,VWS V13.01,2013-06-02 15:05:00,
2013-06-02 09:10:00,64.0,50.3,30.04,ENE,68,0.0,0.0,61,0.00,,---,0.00,VWS V13.01,2013-06-02 15:10:00,
2013-06-02 09:15:00,64.2,50.5,30.04,ENE,68,0.0,0.0,61,0.00,,---,0.00,VWS V13.01,2013-06-02 15:15:00,
2013-06-02 09:20:00,64.2,50.5,30.04,ENE,68,0.0,0.0,61,0.00,,---,0.00,VWS V13.01,2013-06-02 15:20:00,
2013-06-02 09:25:00,64.5,50.3,30.04,ENE,68,0.0,0.0,60,0.00,,---,0.00,VWS V13.01,2013-06-02 15:25:00,
2013-06-02 09:30:00,64.4,49.8,30.03,ENE,68,0.0,0.0,59,0.00,,---,0.00,VWS V13.01,2013-06-02 15:30:00,
2013-06-02 09:35:00,64.5,50.3,30.03,ENE,68,0.0,0.0,60,0.00,,---,0.00,VWS V13.01,2013-06-02 15:35:00,
2013-06-02 09:40:00,64.2,50.0,30.03,ENE,68,0.0,0.0,60,0.00,,---,0.00,VWS V13.01,2013-06-02 15:40:00,
2013-06-02 09:45:00,64.2,49.6,30.03,ENE,68,0.0,0.0,59,0.00,,---,0.00,VWS V13.01,2013-06-02 15:45:00,
2013-06-02 09:50:00,64.0,49.4,30.03,ENE,68,0.0,0.0,59,0.00,,---,0.00,VWS V13.01,2013-06-02 15:50:00,
2013-06-02 09:55:00,63.8,49.7,30.03,ENE,68,0.0,0.0,60,0.00,,---,0.00,VWS V13.01,2013-06-02 15:55:00,
2013-06-02 10:00:00,63.6,49.9,30.02,NE,45,0.0,0.0,61,0.00,,---,0.00,VWS V13.01,2013-06-02 16:00:00,
2013-06-02 10:05:00,63.5,49.8,30.02,NE,45,0.0,0.0,61,0.00,,---,0.00,VWS V13.01,2013-06-02 16:05:00,
2013-06-02 10:10:00,63.6,50.4,30.02,ENE,68,0.0,0.0,62,0.00,,---,0.00,VWS V13.01,2013-06-02 16:10:00,
2013-06-02 10:15:00,63.6,50.4,30.02,ENE,68,0.0,0.0,62,0.00,,---,0.00,VWS V13.01,2013-06-02 16:15:00,
2013-06-02 10:20:00,64.0,51.2,30.02,ENE,68,0.0,0.0,63,0.00,,---,0.00,VWS V13.01,2013-06-02 16:20:00,
2013-06-02 10:25:00,64.0,50.7,30.02,NE,45,0.0,0.0,62,0.00,,---,0.00,VWS V13.01,2013-06-02 16:25:00,
2013-06-02 10:30:00,64.0,50.7,30.02,NE,45,0.0,0.0,62,0.00,,---,0.00,VWS V13.01,2013-06-02 16:30:00,
2013-06-02 10:35:00,64.2,50.9,30.01,ENE,68,0.0,0.0,62,0.00,,---,0.00,VWS V13.01,2013-06-02 16:35:00,
2013-06-02 10:40:00,64.2,50.9,30.01,NE,45,0.0,0.0,62,0.00,,---,0.00,VWS V13.01,2013-06-02 16:40:00,
2013-06-02 10:45:00,64.2,50.9,30.01,NNE,22,0.0,0.0,62,0.00,,---,0.00,VWS V13.01,2013-06-02 16:45:00,
2013-06-02 10:50:00,64.2,51.4,30.01,NE,45,0.0,0.0,63,0.00,,---,0.00,VWS V13.01,2013-06-02 16:50:00,
2013-06-02 10:55:00,64.2,51.4,30.00,North,0,0.0,0.0,63,0.00,,---,0.00,VWS V13.01,2013-06-02 16:55:00,
2013-06-02 11:00:00,64.2,51.8,30.00,NNE,22,0.0,0.0,64,0.00,,---,0.00,VWS V13.01,2013-06-02 17:00:00,
2013-06-02 11:05:00,64.4,51.5,30.00,North,0,0.0,0.0,63,0.00,,---,0.00,VWS V13.01,2013-06-02 17:05:00,
2013-06-02 11:10:00,64.7,51.8,30.00,ENE,68,0.0,0.0,63,0.00,,---,0.00,VWS V13.01,2013-06-02 17:10:00,
2013-06-02 11:15:00,65.1,51.3,30.00,NE,45,0.0,0.0,61,0.00,,---,0.00,VWS V13.01,2013-06-02 17:15:00,
2013-06-02 11:20:00,65.3,52.0,30.00,NE,45,0.0,0.0,62,0.00,,---,0.00,VWS V13.01,2013-06-02 17:20:00,
2013-06-02 11:25:00,65.8,52.0,30.00,ENE,68,0.0,0.0,61,0.00,,---,0.00,VWS V13.01,2013-06-02 17:25:00,
2013-06-02 11:30:00,66.0,52.2,30.00,NE,45,0.0,0.0,61,0.00,,---,0.00,VWS V13.01,2013-06-02 17:30:00,
2013-06-02 11:35:00,66.2,52.4,30.00,NNE,22,0.0,0.0,61,0.00,,---,0.00,VWS V13.01,2013-06-02 17:35:00,
2013-06-02 11:40:00,66.7,52.4,29.99,ENE,68,0.0,0.0,60,0.00,,---,0.00,VWS V13.01,2013-06-02 17:40:00,
2013-06-02 11:45:00,66.9,51.7,29.99,ENE,68,0.0,0.0,58,0.00,,---,0.00,VWS V13.01,2013-06-02 17:45:00,
2013-06-02 11:50:00,67.1,51.4,29.99,ENE,68,0.0,0.0,57,0.00,,---,0.00,VWS V13.01,2013-06-02 17:50:00,
2013-06-02 11:55:00,67.6,51.4,29.98,ENE,68,0.0,0.0,56,0.00,,---,0.00,VWS V13.01,2013-06-02 17:55:00,
2013-06-02 12:01:00,67.8,51.5,29.98,East,90,0.0,0.0,56,0.00,,---,0.00,VWS V13.01,2013-06-02 18:01:00,
2013-06-02 12:06:00,68.1,51.3,29.98,ENE,68,0.0,0.0,55,0.00,,---,0.00,VWS V13.01,2013-06-02 18:06:00,
2013-06-02 12:11:00,68.1,51.3,29.98,ENE,68,0.0,0.0,55,0.00,,---,0.00,VWS V13.01,2013-06-02 18:11:00,
2013-06-02 12:17:00,68.1,51.3,29.97,ENE,68,0.0,0.0,55,0.00,,---,0.00,VWS V13.01,2013-06-02 18:17:00,
2013-06-02 12:22:00,68.3,52.0,29.97,ENE,68,0.0,0.0,56,0.00,,---,0.00,VWS V13.01,2013-06-02 18:22:00,
2013-06-02 12:27:00,68.5,51.7,29.97,ESE,112,0.0,0.0,55,0.00,,---,0.00,VWS V13.01,2013-06-02 18:27:00,
2013-06-02 12:32:00,68.5,51.2,29.97,ENE,68,0.0,0.0,54,0.00,,---,0.00,VWS V13.01,2013-06-02 18:32:00,
2013-06-02 12:37:00,68.5,51.2,29.97,ENE,68,0.0,0.0,54,0.00,,---,0.00,VWS V13.01,2013-06-02 18:37:00,
2013-06-02 12:42:00,69.0,51.2,29.96,ENE,68,0.0,0.0,53,0.00,,---,0.00,VWS V13.01,2013-06-02 18:42:00,
2013-06-02 12:47:00,69.0,51.7,29.96,NE,45,0.0,0.0,54,0.00,,---,0.00,VWS V13.01,2013-06-02 18:47:00,
2013-06-02 12:52:00,69.0,51.7,29.96,South,180,0.0,0.0,54,0.00,,---,0.00,VWS V13.01,2013-06-02 18:52:00,
2013-06-02 12:57:00,69.0,52.2,29.96,ENE,68,0.0,0.0,55,0.00,,---,0.00,VWS V13.01,2013-06-02 18:57:00,
2013-06-02 13:02:00,69.4,51.5,29.96,ENE,68,0.0,0.0,53,0.00,,---,0.00,VWS V13.01,2013-06-02 19:02:00,
2013-06-02 13:07:00,69.4,52.0,29.95,ENE,68,0.0,0.0,54,0.00,,---,0.00,VWS V13.01,2013-06-02 19:07:00,
2013-06-02 13:12:00,69.4,52.0,29.95,ENE,68,0.0,0.0,54,0.00,,---,0.00,VWS V13.01,2013-06-02 19:12:00,
2013-06-02 13:17:00,69.6,51.7,29.95,ENE,68,0.0,0.0,53,0.00,,---,0.00,VWS V13.01,2013-06-02 19:17:00,
2013-06-02 13:22:00,69.9,52.5,29.95,ENE,68,0.0,0.0,54,0.00,,---,0.00,VWS V13.01,2013-06-02 19:22:00,
2013-06-02 13:27:00,69.9,52.0,29.95,East,90,0.0,0.0,53,0.00,,---,0.00,VWS V13.01,2013-06-02 19:27:00,
2013-06-02 13:32:00,69.9,51.5,29.94,ENE,68,0.0,0.0,52,0.00,,---,0.00,VWS V13.01,2013-06-02 19:32:00,
2013-06-02 13:37:00,69.9,51.5,29.94,ENE,68,0.0,0.0,52,0.00,,---,0.00,VWS V13.01,2013-06-02 19:37:00,
2013-06-02 13:42:00,70.3,52.4,29.94,WSW,248,0.0,0.0,53,0.00,,---,0.00,VWS V13.01,2013-06-02 19:42:00,
2013-06-02 13:47:00,70.3,52.4,29.93,ENE,68,0.0,0.0,53,0.00,,---,0.00,VWS V13.01,2013-06-02 19:47:00,
2013-06-02 13:52:00,70.3,51.3,29.93,ENE,68,0.0,0.0,51,0.00,,---,0.00,VWS V13.01,2013-06-02 19:52:00,
2013-06-02 13:57:00,70.5,52.0,29.93,ENE,68,0.0,0.0,52,0.00,,---,0.00,VWS V13.01,2013-06-02 19:57:00,
2013-06-02 14:02:00,70.5,52.0,29.93,NE,45,0.0,0.0,52,0.00,,---,0.00,VWS V13.01,2013-06-02 20:02:00,
2013-06-02 14:07:00,70.5,52.0,29.92,NE,45,0.0,0.0,52,0.00,,---,0.00,VWS V13.01,2013-06-02 20:07:00,
2013-06-02 14:12:00,70.7,52.2,29.92,ENE,68,0.0,0.0,52,0.00,,---,0.00,VWS V13.01,2013-06-02 20:12:00,
2013-06-02 14:17:00,70.7,52.8,29.92,ENE,68,0.0,0.0,53,0.00,,---,0.00,VWS V13.01,2013-06-02 20:17:00,
2013-06-02 14:22:00,70.8,52.3,29.91,ENE,68,0.0,0.0,52,0.00,,---,0.00,VWS V13.01,2013-06-02 20:22:00,
2013-06-02 14:27:00,71.2,52.7,29.91,ENE,68,0.0,0.0,52,0.00,,---,0.00,VWS V13.01,2013-06-02 20:27:00,
2013-06-02 14:32:00,71.2,52.2,29.91,NW,315,0.0,0.0,51,0.00,,---,0.00,VWS V13.01,2013-06-02 20:32:00,
2013-06-02 14:37:00,71.4,52.9,29.90,ENE,68,0.0,0.0,52,0.00,,---,0.00,VWS V13.01,2013-06-02 20:37:00,
2013-06-02 14:42:00,71.4,52.3,29.90,ENE,68,0.0,0.0,51,0.00,,---,0.00,VWS V13.01,2013-06-02 20:42:00,
2013-06-02 14:48:00,71.7,52.1,29.90,ENE,68,0.0,0.0,50,0.00,,---,0.00,VWS V13.01,2013-06-02 20:48:00,
2013-06-02 14:53:00,71.9,52.3,29.90,ENE,68,0.0,0.0,50,0.00,,---,0.00,VWS V13.01,2013-06-02 20:53:00,
2013-06-02 14:58:00,71.9,52.8,29.89,ENE,68,0.0,0.0,51,0.00,,---,0.00,VWS V13.01,2013-06-02 20:58:00,
2013-06-02 15:03:00,72.3,52.6,29.89,ENE,68,0.0,0.0,50,0.00,,---,0.00,VWS V13.01,2013-06-02 21:03:00,
2013-06-02 15:08:00,72.3,52.1,29.89,ENE,68,0.0,0.0,49,0.00,,---,0.00,VWS V13.01,2013-06-02 21:08:00,
2013-06-02 15:13:00,72.5,52.3,29.89,North,0,0.0,0.0,49,0.00,,---,0.00,VWS V13.01,2013-06-02 21:13:00,
2013-06-02 15:18:00,72.5,52.8,29.88,ENE,68,0.0,0.0,50,0.00,,---,0.00,VWS V13.01,2013-06-02 21:18:00,
2013-06-02 15:23:00,72.5,52.3,29.88,East,90,0.0,0.0,49,0.00,,---,0.00,VWS V13.01,2013-06-02 21:23:00,
2013-06-02 15:29:00,72.3,52.1,29.88,SSW,202,0.0,0.0,49,0.00,,---,0.00,VWS V13.01,2013-06-02 21:29:00,
2013-06-02 15:34:00,72.6,52.4,29.88,ENE,68,0.0,0.0,49,0.00,,---,0.00,VWS V13.01,2013-06-02 21:34:00,
2013-06-02 15:39:00,73.0,52.7,29.87,ESE,112,0.0,0.0,49,0.00,,---,0.00,VWS V13.01,2013-06-02 21:39:00,
2013-06-02 15:45:00,73.2,52.4,29.86,ENE,68,0.0,0.0,48,0.00,,---,0.00,VWS V13.01,2013-06-02 21:45:00,
2013-06-02 15:51:00,73.4,52.5,29.86,East,90,0.0,0.0,48,0.00,,---,0.00,VWS V13.01,2013-06-02 21:51:00,
2013-06-02 15:56:00,73.4,52.5,29.86,NW,315,0.0,0.0,48,0.00,,---,0.00,VWS V13.01,2013-06-02 21:56:00,
2013-06-02 16:01:00,73.2,52.4,29.86,ENE,68,0.0,0.0,48,0.00,,---,0.00,VWS V13.01,2013-06-02 22:01:00,
2013-06-02 16:06:00,73.2,52.9,29.85,WSW,248,0.0,0.0,49,0.00,,---,0.00,VWS V13.01,2013-06-02 22:06:00,
2013-06-02 16:11:00,73.2,52.4,29.85,ENE,68,0.0,0.0,48,0.00,,---,0.00,VWS V13.01,2013-06-02 22:11:00,
2013-06-02 16:16:00,73.2,51.8,29.85,SW,225,0.0,0.0,47,0.00,,---,0.00,VWS V13.01,2013-06-02 22:16:00,
2013-06-02 16:21:00,73.2,51.8,29.85,West,270,0.0,0.0,47,0.00,,---,0.00,VWS V13.01,2013-06-02 22:21:00,
2013-06-02 16:26:00,73.2,51.8,29.84,ENE,68,0.0,0.0,47,0.00,,---,0.00,VWS V13.01,2013-06-02 22:26:00,
2013-06-02 16:31:00,73.2,52.4,29.84,East,90,0.0,0.0,48,0.00,,---,0.00,VWS V13.01,2013-06-02 22:31:00,
2013-06-02 16:37:00,73.0,51.6,29.84,East,90,0.0,0.0,47,0.00,,---,0.00,VWS V13.01,2013-06-02 22:37:00,
2013-06-02 16:42:00,72.6,51.2,29.85,ESE,112,0.0,0.0,47,0.00,,---,0.00,VWS V13.01,2013-06-02 22:42:00,
2013-06-02 16:47:00,72.3,51.5,29.85,ENE,68,0.0,0.0,48,0.00,,---,0.00,VWS V13.01,2013-06-02 22:47:00,
2013-06-02 16:52:00,72.1,51.3,29.85,ENE,68,0.0,0.0,48,0.00,,---,0.00,VWS V13.01,2013-06-02 22:52:00,
2013-06-02 16:57:00,71.7,51.5,29.85,NNE,22,0.0,0.0,49,0.00,,---,0.00,VWS V13.01,2013-06-02 22:57:00,
2013-06-02 17:02:00,71.7,52.1,29.85,WNW,292,0.0,0.0,50,0.00,,---,0.00,VWS V13.01,2013-06-02 23:02:00,
2013-06-02 17:07:00,71.6,52.5,29.85,West,270,0.0,0.0,51,0.00,,---,0.00,VWS V13.01,2013-06-02 23:07:00,
2013-06-02 17:13:00,71.4,52.3,29.86,West,270,0.0,0.0,51,0.00,,---,0.00,VWS V13.01,2013-06-02 23:13:00,
2013-06-02 17:18:00,71.2,52.7,29.86,ENE,68,0.0,0.0,52,0.00,,---,0.00,VWS V13.01,2013-06-02 23:18:00,
2013-06-02 17:23:00,70.8,53.3,29.85,ENE,68,0.0,0.0,54,0.00,,---,0.00,VWS V13.01,2013-06-02 23:23:00,
2013-06-02 17:28:00,70.7,53.8,29.83,ENE,68,0.0,0.0,55,0.00,,---,0.00,VWS V13.01,2013-06-02 23:28:00,
2013-06-02 17:34:00,70.7,54.2,29.83,ENE,68,0.0,0.0,56,0.00,,---,0.00,VWS V13.01,2013-06-02 23:34:00,
2013-06-02 17:39:00,70.5,54.1,29.83,ENE,68,0.0,0.0,56,0.00,,---,0.00,VWS V13.01,2013-06-02 23:39:00,
2013-06-02 17:44:00,70.3,53.9,29.83,ENE,68,0.0,0.0,56,0.00,,---,0.00,VWS V13.01,2013-06-02 23:44:00,
2013-06-02 17:49:00,70.3,54.4,29.83,ENE,68,0.0,0.0,57,0.00,,---,0.00,VWS V13.01,2013-06-02 23:49:00,
2013-06-02 17:54:00,70.5,54.5,29.82,ENE,68,0.0,0.0,57,0.00,,---,0.00,VWS V13.01,2013-06-02 23:54:00,
2013-06-02 17:59:00,70.5,54.1,29.80,ENE,68,0.0,0.0,56,0.00,,---,0.00,VWS V13.01,2013-06-02 23:59:00,
2013-06-02 18:04:00,70.8,53.8,29.80,ENE,68,0.0,0.0,55,0.00,,---,0.00,VWS V13.01,2013-06-03 00:04:00,
2013-06-02 18:10:00,70.8,53.3,29.80,NE,45,0.0,0.0,54,0.00,,---,0.00,VWS V13.01,2013-06-03 00:10:00,
2013-06-02 18:15:00,71.0,53.5,29.80,ENE,68,0.0,0.0,54,0.00,,---,0.00,VWS V13.01,2013-06-03 00:15:00,
2013-06-02 18:20:00,71.0,53.5,29.80,ENE,68,0.0,0.0,54,0.00,,---,0.00,VWS V13.01,2013-06-03 00:20:00,
2013-06-02 18:25:00,71.2,53.2,29.80,ENE,68,0.0,0.0,53,0.00,,---,0.00,VWS V13.01,2013-06-03 00:25:00,
2013-06-02 18:30:00,71.2,53.2,29.79,ENE,68,0.0,0.0,53,0.00,,---,0.00,VWS V13.01,2013-06-03 00:30:00,
2013-06-02 18:35:00,71.2,53.2,29.79,East,90,0.0,0.0,53,0.00,,---,0.00,VWS V13.01,2013-06-03 00:35:00,
2013-06-02 18:40:00,71.0,53.5,29.79,ENE,68,0.0,0.0,54,0.00,,---,0.00,VWS V13.01,2013-06-03 00:40:00,
2013-06-02 18:45:00,71.0,53.5,29.79,ENE,68,0.0,0.0,54,0.00,,---,0.00,VWS V13.01,2013-06-03 00:45:00,
2013-06-02 18:50:00,71.2,53.7,29.78,ENE,68,0.0,0.0,54,0.00,,---,0.00,VWS V13.01,2013-06-03 00:50:00,
2013-06-02 18:55:00,70.8,52.8,29.78,ENE,68,0.0,0.0,53,0.00,,---,0.00,VWS V13.01,2013-06-03 00:55:00,
2013-06-02 19:00:00,70.8,53.3,29.77,ESE,112,0.0,0.0,54,0.00,,---,0.00,VWS V13.01,2013-06-03 01:00:00,
2013-06-02 19:06:00,70.5,53.1,29.77,ESE,112,0.0,0.0,54,0.00,,---,0.00,VWS V13.01,2013-06-03 01:06:00,
2013-06-02 19:11:00,70.3,52.4,29.77,WNW,292,0.0,0.0,53,0.00,,---,0.00,VWS V13.01,2013-06-03 01:11:00,
2013-06-02 19:16:00,69.9,52.0,29.77,ENE,68,0.0,0.0,53,0.00,,---,0.00,VWS V13.01,2013-06-03 01:16:00,
2013-06-02 19:21:00,69.6,51.7,29.77,North,0,0.0,0.0,53,0.00,,---,0.00,VWS V13.01,2013-06-03 01:21:00,
2013-06-02 19:27:00,69.4,51.5,29.77,SSW,202,0.0,0.0,53,0.00,,---,0.00,VWS V13.01,2013-06-03 01:27:00,
2013-06-02 19:32:00,69.4,52.0,29.77,ENE,68,0.0,0.0,54,0.00,,---,0.00,VWS V13.01,2013-06-03 01:32:00,
2013-06-02 19:37:00,69.0,51.7,29.77,ENE,68,0.0,0.0,54,0.00,,---,0.00,VWS V13.01,2013-06-03 01:37:00,
2013-06-02 19:42:00,69.0,51.7,29.77,ENE,68,0.0,0.0,54,0.00,,---,0.00,VWS V13.01,2013-06-03 01:42:00,
2013-06-02 19:47:00,68.9,51.6,29.77,ENE,68,0.0,0.0,54,0.00,,---,0.00,VWS V13.01,2013-06-03 01:47:00,
2013-06-02 19:52:00,68.9,51.6,29.77,WNW,292,0.0,0.0,54,0.00,,---,0.00,VWS V13.01,2013-06-03 01:52:00,
2013-06-02 19:57:00,68.7,51.9,29.77,West,270,0.0,0.0,55,0.00,,---,0.00,VWS V13.01,2013-06-03 01:57:00,
2013-06-02 20:02:00,68.7,51.9,29.77,WNW,292,0.0,0.0,55,0.00,,---,0.00,VWS V13.01,2013-06-03 02:02:00,
2013-06-02 20:07:00,68.5,52.2,29.77,WNW,292,0.0,0.0,56,0.00,,---,0.00,VWS V13.01,2013-06-03 02:07:00,
2013-06-02 20:12:00,68.5,52.2,29.78,WNW,292,0.0,0.0,56,0.00,,---,0.00,VWS V13.01,2013-06-03 02:12:00,
2013-06-02 20:17:00,68.3,52.0,29.78,WNW,292,0.0,0.0,56,0.00,,---,0.00,VWS V13.01,2013-06-03 02:17:00,
2013-06-02 20:23:00,68.3,52.0,29.79,North,0,0.0,0.0,56,0.00,,---,0.00,VWS V13.01,2013-06-03 02:23:00,
2013-06-02 20:28:00,68.1,51.8,29.80,NNE,22,0.0,0.0,56,0.00,,---,0.00,VWS V13.01,2013-06-03 02:28:00,
2013-06-02 20:33:00,68.1,51.8,29.80,NE,45,0.0,0.0,56,0.00,,---,0.00,VWS V13.01,2013-06-03 02:33:00,
2013-06-02 20:38:00,67.8,51.5,29.80,NE,45,0.0,0.0,56,0.00,,---,0.00,VWS V13.01,2013-06-03 02:38:00,
2013-06-02 20:43:00,67.8,51.5,29.80,ENE,68,0.0,0.0,56,0.00,,---,0.00,VWS V13.01,2013-06-03 02:43:00,
2013-06-02 20:48:00,67.2,51.5,29.80,NNE,22,0.0,0.0,57,0.00,,---,0.00,VWS V13.01,2013-06-03 02:48:00,
2013-06-02 20:53:00,66.3,51.1,29.81,NE,45,0.0,0.0,58,0.00,,---,0.00,VWS V13.01,2013-06-03 02:53:00,
2013-06-02 20:58:00,65.4,51.2,29.81,NNE,22,0.0,0.0,60,0.00,,---,0.00,VWS V13.01,2013-06-03 02:58:00,
2013-06-02 21:03:00,64.4,50.7,29.81,NNW,338,0.0,0.0,61,0.00,,---,0.00,VWS V13.01,2013-06-03 03:03:00,
2013-06-02 21:08:00,63.6,50.4,29.81,NNE,22,0.0,0.0,62,0.00,,---,0.00,VWS V13.01,2013-06-03 03:08:00,
2013-06-02 21:13:00,62.9,50.1,29.81,NE,45,0.0,0.0,63,0.00,,---,0.00,VWS V13.01,2013-06-03 03:13:00,
2013-06-02 21:18:00,61.8,49.5,29.81,ENE,68,0.0,0.0,64,0.00,,---,0.00,VWS V13.01,2013-06-03 03:18:00,
2013-06-02 21:23:00,61.5,49.2,29.81,NE,45,0.0,0.0,64,0.00,,---,0.00,VWS V13.01,2013-06-03 03:23:00,
2013-06-02 21:28:00,60.9,49.1,29.80,ENE,68,0.0,0.0,65,0.00,,---,0.00,VWS V13.01,2013-06-03 03:28:00,
2013-06-02 21:33:00,60.6,49.2,29.80,NE,45,0.0,0.0,66,0.00,,---,0.00,VWS V13.01,2013-06-03 03:33:00,
2013-06-02 21:38:00,60.6,49.2,29.81,ENE,68,0.0,0.0,66,0.00,,---,0.00,VWS V13.01,2013-06-03 03:38:00,
2013-06-02 21:43:00,60.6,49.2,29.82,East,90,0.0,0.0,66,0.00,,---,0.00,VWS V13.01,2013-06-03 03:43:00,
2013-06-02 21:48:00,60.6,49.6,29.81,ENE,68,0.0,0.0,67,0.00,,---,0.00,VWS V13.01,2013-06-03 03:48:00,
2013-06-02 21:53:00,60.4,49.0,29.82,ENE,68,0.0,0.0,66,0.00,,---,0.00,VWS V13.01,2013-06-03 03:53:00,
2013-06-02 21:58:00,60.0,48.6,29.82,ENE,68,0.0,0.0,66,0.00,,---,0.00,VWS V13.01,2013-06-03 03:58:00,
2013-06-02 22:01:00,59.9,48.9,29.82,ENE,68,0.0,0.0,67,0.00,,---,0.00,VWS V13.01,2013-06-03 04:01:00,
2013-06-02 22:03:00,59.9,48.9,29.82,NE,45,0.0,0.0,67,0.00,,---,0.00,VWS V13.01,2013-06-03 04:03:00,
2013-06-02 22:05:00,59.7,48.7,29.82,ENE,68,0.0,0.0,67,0.00,,---,0.00,VWS V13.01,2013-06-03 04:05:00,
2013-06-02 22:11:00,59.5,48.5,29.82,ENE,68,0.0,0.0,67,0.00,,---,0.00,VWS V13.01,2013-06-03 04:11:00,
2013-06-02 22:16:00,59.5,48.9,29.82,ENE,68,0.0,0.0,68,0.00,,---,0.00,VWS V13.01,2013-06-03 04:16:00,
2013-06-02 22:21:00,59.3,48.8,29.82,ENE,68,0.0,0.0,68,0.00,,---,0.00,VWS V13.01,2013-06-03 04:21:00,
2013-06-02 22:26:00,59.1,48.6,29.82,ENE,68,0.0,0.0,68,0.00,,---,0.00,VWS V13.01,2013-06-03 04:26:00,
2013-06-02 22:31:00,58.8,48.3,29.81,ENE,68,0.0,0.0,68,0.00,,---,0.00,VWS V13.01,2013-06-03 04:31:00,
2013-06-02 22:37:00,58.8,48.3,29.81,NE,45,0.0,0.0,68,0.00,,---,0.00,VWS V13.01,2013-06-03 04:37:00,
2013-06-02 22:42:00,58.8,48.3,29.80,ENE,68,0.0,0.0,68,0.00,,---,0.00,VWS V13.01,2013-06-03 04:42:00,
2013-06-02 22:47:00,58.8,48.7,29.80,ESE,112,0.0,0.0,69,0.00,,---,0.00,VWS V13.01,2013-06-03 04:47:00,
2013-06-02 22:52:00,58.8,48.7,29.80,ESE,112,0.0,0.0,69,0.00,,---,0.00,VWS V13.01,2013-06-03 04:52:00,
2013-06-02 22:57:00,58.8,48.7,29.81,ESE,112,0.0,0.0,69,0.00,,---,0.00,VWS V13.01,2013-06-03 04:57:00,
2013-06-02 23:02:00,58.8,48.7,29.80,ENE,68,0.0,0.0,69,0.00,,---,0.00,VWS V13.01,2013-06-03 05:02:00,
2013-06-02 23:07:00,58.8,48.7,29.80,ENE,68,0.0,0.0,69,0.00,,---,0.00,VWS V13.01,2013-06-03 05:07:00,
2013-06-02 23:12:00,58.8,48.7,29.81,South,180,0.0,0.0,69,0.00,,---,0.00,VWS V13.01,2013-06-03 05:12:00,
2013-06-02 23:17:00,58.8,48.7,29.82,SSW,202,0.0,0.0,69,0.00,,---,0.00,VWS V13.01,2013-06-03 05:17:00,
2013-06-02 23:22:00,58.8,49.0,29.82,WSW,248,0.0,0.0,70,0.00,,---,0.00,VWS V13.01,2013-06-03 05:22:00,
2013-06-02 23:27:00,58.8,49.0,29.81,South,180,0.0,0.0,70,0.00,,---,0.00,VWS V13.01,2013-06-03 05:27:00,
2013-06-02 23:32:00,58.8,49.0,29.81,SSW,202,0.0,0.0,70,0.00,,---,0.00,VWS V13.01,2013-06-03 05:32:00,
2013-06-02 23:37:00,58.8,49.0,29.81,SW,225,0.0,0.0,70,0.00,,---,0.00,VWS V13.01,2013-06-03 05:37:00,
2013-06-02 23:42:00,58.6,49.2,29.82,SW,225,0.0,0.0,71,0.00,,---,0.00,VWS V13.01,2013-06-03 05:42:00,
2013-06-02 23:47:00,58.6,49.2,29.82,SSW,202,0.0,0.0,71,0.00,,---,0.00,VWS V13.01,2013-06-03 05:47:00,
2013-06-02 23:52:00,58.4,49.4,29.81,SSW,202,0.0,0.0,72,0.00,,---,0.00,VWS V13.01,2013-06-03 05:52:00,
2013-06-02 23:57:00,58.4,49.4,29.81,SSW,202,0.0,0.0,72,0.00,,---,0.00,VWS V13.01,2013-06-03 05:57:00,